Current weather by "City, St" or "zip code"  
 

Current Conditions: Gadsden, Gadsden Municipal Airport, AL

Fair


67.0 F

Last Updated on Oct 31 2020, 1:56 pm CDT
Humidity: 49%
Wind Speed: E 6.9 mph
Barometer 30.26 in
Dewpoint: 46.9 F
Visibility: 10.00 mi
Precip: --
Heat Index: NA
Wind Chill: NA
Current conditions at:

Gadsden, Gadsden Municipal Airport, AL (KGAD)

Lat: 33.96667 Lon: 86.08333

Local Radar Image active severe weather and emergency alerts image image weather storm and storm spotter reports image weather observation monitoring service image
Local
Radar
Active
Alerts
Storm Reports Obs
Monitoring

Sign-up For Email & Text Message Weather Alert Notification Services



Advertise Here

Observation History for Gadsden, Gadsden Municipal Airport, AL


Time Wind
(mph)
Vis
(mi)
Weather Precip (in) Temperature (F) Relative
Humidity
Wind
Chill
(F)
Heat
Index
(F)
Pressure
Air Dwpt altimeter
(in)
sea level
(mb)
Rmks
1:56 pm CDT E 6.9 10.00 Fair -- 67.0 46.9 49% NA NA 30.26 1025.1
12:56 pm CDT NE 5.8 10.00 Fair -- 65.0 46.9 52% NA NA 30.29 1026.3
11:56 am CDT NE 9.2 10.00 Fair -- 61.0 46.0 58% 60 NA 30.33 1027.5
10:56 am CDT E 8.1 10.00 Fair -- 58.0 44.1 60% 56 NA 30.35 1028.1
9:56 am CDT E 10.4 10.00 Fair -- 54.0 44.1 69% 51 NA 30.36 1028.6
8:56 am CDT E 8.1 10.00 Fair -- 49.0 44.1 83% 46 NA 30.36 1028.4
7:56 am CDT NE 8.1 10.00 Fair -- 44.0 42.1 93% 39 NA 30.34 1027.9
6:56 am CDT N 3.5 10.00 Fair -- 41.0 39.0 93% NA NA 30.33 1027.8
5:56 am CDT N 5.8 10.00 Fair -- 41.0 39.9 96% 37 NA 30.32 1027.1
4:56 am CDT N 5.8 10.00 Fair -- 41.0 39.9 96% 37 NA 30.29 1026.5
3:56 am CDT NW 3.5 10.00 Fair -- 41.0 39.9 96% NA NA 30.28 1026.0
2:56 am CDT N 3.5 10.00 Fair -- 41.0 39.9 96% NA NA 30.27 1025.6
1:56 am CDT N 4.6 10.00 Fair -- 43.0 41.0 93% 40 NA 30.27 1025.5
12:56 am CDT N 4.6 10.00 Fair -- 44.0 41.0 89% 41 NA 30.26 1025.3
11:56 pm CDT N 6.9 10.00 Fair -- 45.0 41.0 86% 41 NA 30.26 1025.1
10:56 pm CDT N 5.8 10.00 Fair -- 46.0 42.1 86% 43 NA 30.27 1025.5
9:56 pm CDT N 6.9 10.00 Fair -- 47.0 42.1 83% 44 NA 30.26 1025.4
8:56 pm CDT N 6.9 10.00 Fair -- 49.0 43.0 80% 46 NA 30.26 1025.2
7:56 pm CDT NW 5.8 10.00 Fair -- 49.0 44.1 83% 47 NA 30.24 1024.7
6:56 pm CDT NW 5.8 10.00 Fair -- 51.0 43.0 74% 49 NA 30.23 1024.2
5:56 pm CDT N 6.9 10.00 Fair -- 54.0 43.0 67% 52 NA 30.21 1023.5
4:56 pm CDT NW 8.1 10.00 Fair -- 58.0 44.1 60% 56 NA 30.20 1022.9
3:56 pm CDT N 11.5 10.00 Fair -- 59.0 43.0 56% 57 NA 30.18 1022.5
2:56 pm CDT N 9.2 10.00 Fair -- 60.0 43.0 53% 59 NA 30.18 1022.3

Regional Weather Observation


Gadsden, Gadsden Municipal Airport, AL (KGAD)

Fair
67.0 F

Folsom Field Airport, AL (K3A1)

Partly Cloudy
82.0 F

Scottsboro Municipal Airport, AL (K4A6)

Fair
66.0 F

Redstone Airfield, AL (KHUA)

Fair
64.0 F

Huntsville, Huntsville International / Jones Field, AL (KHSV)

Partly Cloudy
66.0 F

Decatur, Pryor Field, AL (KDCU)

Fair
66.0 F